sat.trackr.live / text

‹ back to catalog

STARLINK-36269

NORAD 67472 · 2026-008AD

PAYLOAD ACTIVE UNKNOWN

§ Identity

Operator
Country
US
Launch date
2026-01-14
Launch site
AFETR
Launch vehicle
Mass (kg)
RCS (m²)

Purposes: comms

External: N2YO · Heavens-Above · Gunter

§ Orbital elements

Epoch: 2026-09-19T12:29:06.777312Z

Period
94.27 min
Inclination
43.0023°
Eccentricity
0.0001716
Mean motion
15.27591790 rev/d
Perigee alt
481.8 km
Apogee alt
484.2 km
Semi-major
6,861.2 km
B*
3.2955e-4
RAAN
190.7687°
Arg perigee
268.2240°
Mean anomaly
91.8415°
Rev number
3,921

§ Raw data

STARLINK-362691 67472U 26008AD  26262.52021733  .00008821  00000+0  32955-3 0  99982 67472  43.0023 190.7687 0001716 268.2240  91.8415 15.27591790 39216

JSON: /api/v1/satellites/67472 · /tle

For live sub-satellite position, see the globe view (requires WebGL).

§ Visibility from observer

Set your observer location to see the next 7 days of passes ≥ 10°. The values pass through the URL so the page stays shareable.

No JS? Fill the form by hand. The geolocation button needs JavaScript.